Location: Strada George Coșbuc
(47.6577°N, 23.5639°E)
Time: 22:18:08
(UTC+03:00)

ISS - Pass Details

Date: 10 September 2017
Orbit: 401 x 407 km, 51.6° (Epoch: 25 September)

Event Time Altitude Azimuth Distance (km) Brightness Sun altitude
Exits shadow 04:19:12 31° 72° (ENE) 747 -2.0 -24.7°
Drops below altitude 10° 04:21:04 10° 68° (ENE) 1,475 0.0 -24.5°
Sets 04:23:10 0° 67° (ENE) 2,338 1.3 -24.2°
